User: anonymous   Login
Location: Ladysmith
(45.4630°N, 91.1040°W)
Time: 18:26:37
(UTC-05:00)
Language:

SO-67 - Orbit

View from above orbital plane
View from above orbital plane
View from above satellite
View from above satellite

Ground track
Ground track

The orbit data is extracted from the following two-line orbital elements,

1 35870U 09049F   15245.93687649 +.00006517 +00000-0 +14852-3 0  9996
2 35870 097.1347 260.6595 0001186 053.1460 030.7420 15.43256647332102
Epoch (UTC): 02 September 2015 22:29:06
Eccentricity: 0.0001186
inclination: 97.1347°
perigee height: 436 km
apogee height: 437 km
right ascension of ascending node: 260.6595°
argument of perigee: 53.1460°
revolutions per day: 15.43256647
mean anomaly at epoch: 30.7420°
orbit number at epoch: 33210

The dashed part of the orbit path shows where the satellite is in the earth's shadow,  

DLR